Location: *
(58.4167°N, 22.5000°E)
Time: 13:18:14
(UTC+00:00)

USA 234 - Pass Details

Date: 22 September 2019
Orbit: 1103 x 1105 km, 123.0° (Epoch: 06 October)

Event Time Altitude Azimuth Distance (km) Brightness Sun altitude
Exits shadow 20:49:57 69° 188° (S) 1,179 3.1 -28.6°
Maximum altitude 20:50:06 69° 198° (SSW) 1,177 3.1 -28.6°
Drops below altitude 10° 20:56:39 10° 282° (WNW) 2,968 5.9 -29.0°
Sets 20:59:09 0° 285° (WNW) 3,927 6.7 -29.1°
